Gwinn, MI

8:36 AM EST on January 18, 2017 (GMT -0500)
Sawyer International

Weather History for KSAW - October, 2013

Change the Weather History Date:

Friday, October 4, 2013

  Actual Average (KESC) Record (KESC)
Temperature  
Mean Temperature 54 °F -  
Max Temperature 57 °F 58 °F 75 °F (1958)
Min Temperature 52 °F 42 °F 21 °F (1999)
Degree Days  
Heating Degree Days 10    
Growing Degree Days 4 (Base 50)    
Moisture  
Dew Point 50 °F    
Average Humidity 86    
Maximum Humidity 94    
Minimum Humidity 77    
Precipitation  
Precipitation 0.00 in - - ()
Sea Level Pressure  
Sea Level Pressure 30.06 in    
Wind  
Wind Speed 10 mph (NE)    
Max Wind Speed 15 mph    
Max Gust Speed 22 mph    
Visibility 10 miles    
Events      
Averages and records for this station are not official NWS values.
T = Trace of Precipitation, MM = Missing Value Source: NWS Daily Summary

Daily Weather History Graph

Daily Weather History Graph

Search for Another Location

Airport or City:

Trip Planner

Search our weather history database for the weather conditions in past years. The results will help you decide how hot, cold, wet, or windy it might be!

Date:

Astronomy

Oct. 04, 2013 Rise Set
Actual Time 7:52 AM EDT 7:23 PM EDT
Civil Twilight 7:22 AM EDT 7:53 PM EDT
Nautical Twilight 6:47 AM EDT 8:27 PM EDT
Astronomical Twilight 6:12 AM EDT 9:03 PM EDT
Moon 7:28 AM EDT (10/4) 7:03 PM EDT (10/4)
Length of Visible Light 12h 30m
Length of Day
11h 30m
Waning Crescent, 0% of the Moon is Illuminated
Oct 4
Waning Crescent
Oct 4
New
Oct 11
First Quarter
Oct 18
Full
Oct 26
Last Quarter

Hourly Weather History & Observations

Time (EDT) Temp. Dew Point Humidity Pressure Visibility Wind Dir Wind Speed Gust Speed Precip Events Conditions
12:37 AM 52.0 °F 49.6 °F 92% 30.00 in 10.0 mi NNE 6.9 mph - N/A   Overcast
12:56 AM 52.0 °F 50.0 °F 93% 29.99 in 10.0 mi NE 10.4 mph - N/A   Overcast
1:16 AM 52.2 °F 50.0 °F 92% 30.00 in 10.0 mi NE 8.1 mph - N/A   Overcast
1:37 AM 52.5 °F 50.0 °F 91% 30.00 in 10.0 mi NE 6.9 mph - N/A   Overcast
1:56 AM 52.7 °F 49.3 °F 88% 29.99 in 10.0 mi NE 10.4 mph - N/A   Overcast
2:17 AM 52.7 °F 49.5 °F 89% 29.99 in 10.0 mi NE 10.4 mph - N/A   Overcast
2:37 AM 53.1 °F 49.3 °F 87% 30.00 in 10.0 mi ENE 8.1 mph - N/A   Overcast
2:56 AM 53.2 °F 49.6 °F 88% 29.99 in 10.0 mi NE 10.4 mph - N/A   Overcast
3:17 AM 53.2 °F 50.5 °F 91% 30.00 in 10.0 mi NE 8.1 mph - N/A   Overcast
3:36 AM 53.4 °F 50.9 °F 91% 30.00 in 10.0 mi NNE 9.2 mph - N/A   Overcast
3:57 AM 53.6 °F 51.4 °F 92% 30.00 in 10.0 mi NE 11.5 mph - N/A   Overcast
4:16 AM 53.6 °F 51.6 °F 93% 30.01 in 10.0 mi NE 10.4 mph - N/A   Overcast
4:37 AM 53.6 °F 51.1 °F 91% 30.01 in 10.0 mi NE 10.4 mph - N/A   Overcast
4:56 AM 53.6 °F 50.9 °F 91% 30.00 in 10.0 mi NE 12.7 mph - N/A   Overcast
5:17 AM 53.6 °F 50.9 °F 91% 30.01 in 10.0 mi NNE 10.4 mph 16.1 mph N/A   Overcast
5:37 AM 53.6 °F 50.9 °F 91% 30.02 in 10.0 mi NE 10.4 mph 16.1 mph N/A   Overcast
5:56 AM 53.8 °F 51.1 °F 91% 30.03 in 10.0 mi NNE 8.1 mph - N/A   Overcast
6:50 AM 53.6 °F 50.0 °F 88% 30.04 in 10.0 mi NE 9.2 mph - N/A   Overcast
7:50 AM 53.6 °F 50.0 °F 88% 30.04 in 10.0 mi NE 8.1 mph - N/A   Overcast
8:50 AM 53.6 °F 51.8 °F 94% 30.06 in 10.0 mi NE 6.9 mph - N/A   Overcast
9:55 AM 55.4 °F 51.8 °F 88% 30.07 in 10.0 mi NE 11.5 mph - N/A   Scattered Clouds
10:10 AM 55.4 °F 51.8 °F 88% 30.08 in 10.0 mi NE 11.5 mph 17.3 mph N/A   Mostly Cloudy
10:50 AM 55.4 °F 51.8 °F 88% 30.09 in 10.0 mi NE 13.8 mph 18.4 mph N/A   Overcast
11:55 AM 55.4 °F 50.0 °F 82% 30.09 in 10.0 mi NE 13.8 mph 19.6 mph N/A   Overcast
12:45 PM 55.4 °F 50.0 °F 82% 30.11 in 10.0 mi NE 15.0 mph 21.9 mph N/A   Overcast
1:50 PM 57.2 °F 50.0 °F 77% 30.10 in 10.0 mi NE 15.0 mph 20.7 mph N/A   Overcast
2:50 PM 57.2 °F 50.0 °F 77% 30.11 in 10.0 mi NE 10.4 mph 17.3 mph N/A   Overcast
3:50 PM 57.2 °F 50.0 °F 77% 30.09 in 10.0 mi NE 13.8 mph - N/A   Overcast
4:50 PM 57.2 °F 50.0 °F 77% 30.10 in 10.0 mi NE 11.5 mph 17.3 mph N/A   Overcast
5:50 PM 55.4 °F 50.0 °F 82% 30.10 in 10.0 mi NE 11.5 mph - N/A   Overcast
6:50 PM 55.4 °F 48.2 °F 77% 30.12 in 10.0 mi NE 9.2 mph - N/A   Overcast
7:50 PM 53.6 °F 48.2 °F 82% 30.11 in 10.0 mi NE 10.4 mph - N/A   Overcast
8:50 PM 53.6 °F 48.2 °F 82% 30.11 in 10.0 mi NE 10.4 mph - N/A   Overcast
9:50 PM 53.6 °F 46.4 °F 77% 30.13 in 10.0 mi ENE 9.2 mph - N/A   Overcast
10:17 PM 53.8 °F 47.3 °F 79% 30.13 in 10.0 mi NE 11.5 mph - N/A   Overcast
10:36 PM 53.8 °F 47.3 °F 79% 30.13 in 10.0 mi ENE 12.7 mph - N/A   Overcast
10:57 PM 53.8 °F 46.8 °F 77% 30.14 in 10.0 mi ENE 9.2 mph - N/A   Overcast
11:16 PM 53.8 °F 47.3 °F 79% 30.13 in 10.0 mi NE 9.2 mph - N/A   Overcast
11:37 PM 53.6 °F 47.7 °F 80% 30.13 in 10.0 mi ENE 6.9 mph - N/A   Overcast
11:57 PM 53.6 °F 47.8 °F 81% 30.13 in 10.0 mi NE 9.2 mph - N/A   Overcast